{"data":{"norad_id":58171,"epoch":"2026-05-24T22:12:09.191232Z","epoch_age_seconds":74777,"freshness":"FRESH","line1":"1 58171U 23166X   26144.92510638 -.00002454  00000+0 -70784-4 0  9997","line2":"2 58171  53.1601 225.3346 0001070  92.9360 267.1764 15.30184316144859","mean_motion":15.30184316,"eccentricity":0.000107,"inclination_deg":53.1601,"raan_deg":225.3346,"arg_perigee_deg":92.936,"mean_anomaly_deg":267.1764,"bstar":-7.0784e-5,"rev_number":14485,"period_min":94.106310262299,"perigee_km":474.52858573402,"apogee_km":475.99521309849,"semimajor_km":6853.3988994163,"source":"CELESTRAK","updated_at":"2026-05-25T13:38:18.566367Z"}}